SCP
0 0 0 0 0 0 0 0 0 0 0 0 0 0 0 0 0 0 0 0 0 0 0 0 0 0 0 0 0 0 0 0 0 0 0 0 0 0 0 0 0 0 0
0 0 0 0 0 0 0 0 0 0 0 0 0 0 0 0 0 0 0 0 0 0 0 0 0 0 0 0 0 0 0 0 0 0 0 0 0 0 0 0 0 0 0
0 0 0 0 0 0 0 0 0 0 0 0 0 0 0 0 0 0 0 0 0 0 0 0 0 0 0 0 0 0 0 0 0 0 0 0 0 0 0 0 0 0 0
0 0 0 0 0 0 0 0 0 0 0 0 0 0 0 0 0 0 0 0 0 0 0 0 0 0 0 0 0 0 0 0 0 0 0 0 0 0 0 0 0 0 0
0 0 0 0 0 0 0 0 0 0 0 0 0 0 0 0 0 0 0 0 0 0 0 0 0 0 0 0 0 0 0 0 0 0 0 0 0 0 0 0 0 0 0
0 0 0 0 0 0 0 0 0 0 0 0 0 0 0 0 0 0 0 0 0 0 0 0 0 0 0 0 0 0 0 0 0 0 0 0 0 0 0 0 0 0 0
0 -0 -0 0 0 0 0 0 0 0 0 0 0 0 0 0 0 0 0 0 0 0 0 0 0 0 0 0 0 0 0 0 0 0 0 0 0 0 0 0 0 0 0
-0 -0 -0 -0 -0 0 0 0 0 0 0 0 0 0 0 0 0 0 -0 -0 -0 0 0 0 0 0 0 0 0 0 0 0 0 0 0 0 0 0 0 0 0 0 0
0 0 0 0 0 0 0 0 0 0 0 0 0 0 0 0 0 -0 -0 0 0 0 0 0 0 0 0 0 0 0 0 0 0 0 0 0 0 0 0 0 0 0 0
0 0 0 0 0 0 0 0 0 0 0 0 0 0 0 0 0 -0 0 0 0 0 0 0 0 0 0 0 0 0 0 0 0 0 0 0 0 0 0 0 0 0 0
0 0 0 0 0 0 0 0 0 0 0 0 0 0 0 0 0 -0 0 0 0 0 0 0 0 0 0 0 0 0 0 0 0 0 0 0 0 0 0 0 0 0 0
0 0 0 0 0 0 0 0 0 0 0 0 0 -0 -0 -0 -0 -0 -0 -0 0 0 0 0 0 0 0 0 0 0 0 0 0 0 0 0 0 0 0 0 0 0 0
0 0 0 0 0 0 0 0 0 0 0 -0 0 0 0 0 0 -0 -0 0 0 0 0 0 0 0 0 0 0 0 0 0 0 0 0 0 0 0 0 0 0 0 0
0 0 0 0 0 0 0 0 0 0 0 0 -0 -0 -0 -0 0 0 0 0 0 0 0 0 0 0 0 0 0 0 0 0 0 0 0 0 0 0 0 0 0 0 0
0 0 0 0 0 0 0 0 0 0 -0 -0 0 -0 -0 0 0 0 0 0 0 0 0 0 0 0 0 0 0 0 0 0 0 0 0 0 0 0 0 0 0 0 0
0 0 0 0 0 0 0 0 -0 -0 -0 -0 -0 -0 0 0 0 0 0 0 0 0 0 0 0 0 0 0 0 0 0 0 0 0 0 0 0 0 0 0 0 0 0
0 0 0 0 0 0 0 0 0 0 -0 0 0 0 0 0 0 0 0 0 0 0 0 0 0 0 0 0 0 0 0 0 0 0 0 0 0 0 0 0 0 0 0
0 0 0 0 0 0 0 0 0 0 0 0 0 0 0 0 0 0 0 0 0 0 0 0 0 0 0 0 0 0 0 0 0 0 0 0 0 0 0 0 0 0 0
0 0 0 0 0 0 0 0 0 0 0 0 0 0 0 0 0 0 0 0 0 0 0 0 0 0 0 0 0 0 0 0 0 0 0 0 0 0 0 0 0 0 0
0 0 0 0 0 0 0 0 0 0 0 0 0 0 0 0 0 0 0 0 0 0 0 0 0 0 0 0 0 0 0 0 0 0 0 0 0 0 0 0 0 0 0
0 0 0 0 0 0 0 0 0 0 0 0 0 0 0 0 0 0 0 0 0 0 0 0 0 0 0 0 0 0 0 0 0 0 0 0 0 0 0 0 0 0 0
0 0 0 0 0 0 0 0 0 0 0 0 0 0 0 0 0 0 0 0 0 0 0 0 0 0 0 0 0 0 0 0 0 0 0 0 0 0 0 0 0 0 0
0 0 0 0 0 0 0 0 0 0 0 0 0 0 0 0 0 0 0 0 0 0 0 0 0 0 0 0 0 0 0 0 0 0 0 0 0 0 0 0 0 0 0
0 0 0 0 0 0 0 0 0 0 0 0 0 0 0 0 0 0 0 0 0 0 0 0 0 0 0 0 0 0 0 0 0 0 0 0 0 0 0 0 0 0 0
0 0 0 0 0 0 0 0 0 0 0 0 0 0 0 0 0 0 0 0 0 0 0 0 0 0 0 0 0 0 0 0 0 0 0 0 0 0 0 0 0 0 0
0 0 0 0 0 0 0 0 0 0 0 0 0 0 0 0 0 0 0 0 0 0 0 0 0 0 0 0 0 0 0 0 0 0 0 0 0 0 0 0 0 0 0
Wind_Speed_500mb
27 24 24 25 25 33 33 29 28 30 30 36 28 40 46 42 29 48 58 58 65 68 74 76 76 77 61 56 59 52 47 49 58 49 43 46 52 44 38 37 35 33 33
19 21 22 23 23 22 24 30 26 22 26 32 26 13 34 40 30 29 39 69 54 69 78 69 76 56 59 56 50 46 44 48 57 55 47 44 40 35 32 30 30 31 32
20 19 19 18 17 17 20 24 24 23 22 31 29 14 20 46 18 22 31 53 54 47 50 45 48 47 35 32 39 40 43 46 51 51 51 44 36 32 31 32 34 33 29
23 18 14 14 14 14 16 17 19 24 23 28 28 16 13 39 37 41 34 31 34 40 28 27 24 25 25 32 30 30 30 30 36 35 33 37 37 35 31 30 30 27 23
24 19 13 9 8 11 13 15 20 19 18 21 16 18 17 28 32 42 50 44 37 37 32 26 23 19 19 13 11 12 10 13 16 21 31 37 38 39 35 29 27 24 20
21 16 10 6 1 7 9 13 17 20 21 18 17 15 23 32 46 54 51 41 43 36 35 30 26 24 23 20 18 17 19 15 17 24 30 32 33 31 28 24 23 26 26
27 22 16 11 12 16 16 17 21 25 27 12 27 36 54 58 58 59 57 52 46 40 41 38 37 33 29 25 25 23 26 26 25 21 25 28 30 27 24 25 26 23 17
36 34 29 23 28 29 36 40 43 45 48 54 59 63 65 57 53 54 49 51 49 44 42 38 36 35 32 24 21 21 25 27 26 25 22 25 23 23 23 20 21 21 18
52 49 47 45 48 50 56 58 60 66 70 67 66 65 62 52 51 54 48 50 50 48 43 36 31 30 31 27 17 21 22 22 22 18 16 15 14 18 19 20 25 24 21
55 53 54 60 66 66 65 67 65 64 63 63 61 55 53 54 47 45 37 36 36 36 33 30 27 24 22 17 9 12 10 13 13 13 13 12 15 15 16 19 19 21 21
45 44 47 51 56 60 60 58 57 57 54 52 49 49 48 47 45 39 34 30 27 26 25 24 21 17 13 8 4 4 5 8 9 10 10 14 15 15 17 20 21 23 24
36 40 44 46 47 47 48 46 43 41 41 39 37 37 37 36 31 27 23 18 17 14 14 14 12 9 5 6 8 8 9 10 13 13 15 15 16 18 21 22 22 24 26
26 29 32 32 32 32 31 33 33 31 30 27 24 26 26 23 19 14 9 5 2 3 3 3 4 5 6 10 10 10 11 15 17 17 16 15 17 19 19 19 21 22 23
21 21 20 20 20 19 19 21 22 22 21 20 20 19 18 16 14 13 9 5 0 4 6 7 6 6 5 9 9 10 10 13 15 14 14 15 17 18 19 20 21 21 22
18 17 16 17 19 20 21 25 23 23 20 18 16 14 13 11 8 6 3 1 1 5 8 10 9 9 11 11 11 13 15 15 15 15 17 18 18 19 17 17 17 18 17
16 17 15 15 15 16 18 19 20 22 21 22 20 16 17 17 16 14 11 5 2 8 13 13 14 15 14 14 14 14 16 16 15 15 15 15 15 16 17 15 15 15 16
16 15 13 13 13 14 14 14 14 17 18 17 16 15 16 18 17 16 12 11 9 11 15 16 18 18 18 18 17 15 14 12 11 10 11 12 13 14 15 16 16 17 18
11 11 11 11 11 11 11 13 14 15 14 15 15 16 14 11 8 6 5 6 5 4 8 11 13 13 12 12 11 10 9 9 10 10 11 11 12 12 13 13 13 14 15
6 5 4 4 4 5 6 7 7 7 8 9 10 9 9 9 11 11 10 9 8 6 5 6 8 8 8 9 10 11 11 11 12 12 13 13 13 14 15 15 16 17 18
4 5 6 7 7 6 6 6 6 8 10 11 12 12 12 12 11 10 9 7 7 7 8 9 11 12 13 14 14 15 15 15 15 16 17 18 18 19 19 19 20 21 22
13 13 14 13 11 10 10 10 11 12 13 13 13 13 11 10 9 9 9 10 10 11 11 12 12 13 13 13 14 14 16 17 18 20 21 23 24 25 26 26 27 27 27
22 22 20 17 16 15 15 16 15 15 15 17 14 16 15 14 14 15 15 15 16 16 17 17 17 16 17 18 19 21 22 24 26 28 30 31 32 33 35 35 34 33 33
30 27 26 24 22 21 19 17 17 17 17 16 16 17 17 18 19 19 18 18 18 19 19 20 21 22 23 25 27 28 30 31 35 38 40 41 42 42 42 44 44 44 44
34 31 31 29 26 25 23 21 20 19 18 18 19 19 20 21 21 22 22 23 24 24 24 24 26 27 30 32 35 38 40 42 44 45 47 49 51 51 52 54 55 56 56
37 35 33 31 29 26 24 22 21 20 20 21 21 22 22 22 23 23 25 26 26 27 28 30 32 35 38 40 43 45 45 47 49 50 53 56 59 60 61 63 63 61 59
38 36 34 31 29 26 24 23 22 22 23 24 24 24 24 24 25 28 29 29 30 31 32 34 38 41 44 46 46 48 51 53 55 56 58 62 65 66 64 62 58 53 49
Wind_Direction_500mb
335 307 278 266 264 256 252 257 258 252 256 255 267 240 240 244 237 203 219 228 230 237 239 241 238 240 241 243 249 246 245 248 241 241 236 232 233 234 237 238 238 240 229
335 320 300 277 268 262 255 251 252 261 245 251 261 269 234 235 230 207 219 226 234 236 245 232 227 235 239 233 235 238 245 240 240 239 225 211 213 215 220 219 210 214 210
333 318 310 303 294 282 273 263 252 238 252 249 255 284 235 228 252 198 206 206 203 222 227 212 206 211 221 231 236 240 240 242 243 239 229 215 204 197 192 188 183 186 194
338 326 307 286 277 268 270 271 260 247 249 263 241 286 270 214 235 177 197 183 214 194 190 189 185 203 224 236 234 234 228 228 233 230 220 203 192 180 189 190 183 184 191
348 337 330 318 285 254 243 248 252 248 242 255 243 262 251 199 186 169 169 159 167 162 150 149 148 149 148 157 165 176 184 190 189 190 184 180 178 177 185 185 190 183 177
5 3 357 337 289 206 200 185 210 215 203 198 207 230 184 166 155 150 140 146 131 127 129 123 122 126 133 135 138 138 132 129 151 160 167 169 171 174 178 184 194 177 159
47 47 53 86 113 129 144 159 158 158 148 159 147 154 138 138 137 127 127 125 123 123 119 120 122 120 117 118 115 116 112 114 119 129 152 157 162 164 166 173 170 171 167
64 66 67 81 104 119 121 127 132 127 126 135 130 127 122 118 119 117 120 120 120 119 118 123 124 118 110 108 110 116 119 117 116 124 134 145 147 155 160 174 180 182 199
67 79 88 97 105 112 109 106 108 113 113 111 111 110 108 108 109 107 111 118 120 124 126 125 121 120 113 109 117 120 118 124 128 132 149 148 164 177 181 192 209 209 216
59 68 81 91 96 96 97 97 100 99 99 99 99 100 101 99 97 98 103 113 121 123 126 128 130 131 121 113 117 112 128 134 146 164 162 173 188 197 201 207 221 222 222
63 69 76 77 81 85 86 88 92 99 102 104 101 101 102 104 106 113 117 120 123 128 128 132 131 124 124 132 121 151 179 174 197 212 208 213 215 222 230 232 233 235 239
66 72 73 76 81 86 91 95 92 94 99 102 101 100 100 103 109 115 117 119 123 136 134 128 130 138 144 206 218 228 241 251 249 244 242 243 246 244 243 242 243 246 245
62 68 76 81 85 87 90 93 95 98 102 98 94 93 92 91 97 108 120 121 148 141 141 96 23 330 304 286 275 275 263 259 262 257 257 256 256 258 262 263 263 260 257
55 57 63 69 70 72 75 80 86 89 82 80 77 74 74 73 73 72 69 87 133 304 337 331 337 322 297 288 307 316 293 265 262 275 273 274 277 278 278 279 277 269 263
51 50 51 58 60 59 63 68 65 67 67 67 61 51 50 46 39 31 39 44 340 307 311 313 315 314 316 311 304 293 281 276 280 284 285 289 291 291 287 284 280 278 271
51 55 53 56 57 60 61 57 56 53 44 36 34 32 24 21 18 7 9 347 307 293 296 296 292 293 293 290 285 278 281 285 289 293 294 293 292 290 289 285 282 278 276
48 50 46 44 39 37 37 42 37 31 30 24 25 19 10 5 3 359 351 339 314 277 259 275 289 295 301 300 299 295 286 284 283 283 281 278 278 282 285 288 290 289 290
41 45 47 40 34 28 26 25 17 13 14 9 4 4 7 10 10 11 2 5 350 293 285 282 285 284 276 269 267 272 285 294 298 298 293 290 287 285 287 287 285 285 286
30 23 22 20 20 5 357 349 346 335 332 333 341 348 349 352 354 355 356 0 355 335 299 272 265 267 276 287 295 299 301 301 300 301 303 304 303 304 305 304 302 299 297
298 308 315 308 300 302 308 310 315 324 330 338 345 349 351 350 353 353 346 333 316 300 291 285 283 284 286 288 291 294 296 296 295 294 293 293 295 297 297 296 295 296 297
283 285 287 284 289 302 315 320 322 326 327 332 334 331 329 328 321 311 309 308 304 299 292 287 285 283 283 283 284 285 288 290 292 295 297 299 300 300 299 298 297 296 296
266 268 272 279 286 294 301 306 307 311 313 314 312 308 309 306 306 307 307 307 307 306 307 306 304 301 298 297 298 300 302 303 304 303 303 301 300 300 299 297 296 295 294
263 270 279 283 284 283 284 287 292 292 291 291 293 295 300 301 301 301 301 301 302 303 302 299 297 297 297 299 300 302 303 302 300 299 298 297 297 297 296 295 294 293 292
262 268 271 272 274 276 279 283 285 287 291 294 294 292 292 292 292 295 299 301 301 299 297 296 296 296 298 299 299 299 299 297 295 295 294 293 293 292 291 290 291 291 291
261 263 267 270 274 276 277 280 283 288 292 292 292 293 293 291 291 291 292 294 295 295 295 295 295 295 295 295 295 295 294 292 292 291 290 289 288 289 289 289 289 289 288
258 262 266 270 272 273 275 279 284 287 289 289 288 287 287 289 291 295 296 295 295 295 295 294 294 295 295 296 296 295 294 292 291 290 288 287 286 287 287 286 286 285 285
Wind_Speed_850mb
27 24 24 25 25 33 33 29 28 30 30 36 28 40 46 42 29 48 58 58 65 68 74 76 76 77 61 56 59 52 47 49 58 49 43 46 52 44 38 37 35 33 33
19 21 22 23 23 22 24 30 26 22 26 32 26 13 34 40 30 29 39 69 54 69 78 69 76 56 59 56 50 46 44 48 57 55 47 44 40 35 32 30 30 31 32
20 19 19 18 17 17 20 24 24 23 22 31 29 14 20 46 18 22 31 53 54 47 50 45 48 47 35 32 39 40 43 46 51 51 51 44 36 32 31 32 34 33 29
23 18 14 14 14 14 16 17 19 24 23 28 28 16 13 39 37 41 34 31 34 40 28 27 24 25 25 32 30 30 30 30 36 35 33 37 37 35 31 30 30 27 23
24 19 13 9 8 11 13 15 20 19 18 21 16 18 17 28 32 42 50 44 37 37 32 26 23 19 19 13 11 12 10 13 16 21 31 37 38 39 35 29 27 24 20
21 16 10 6 1 7 9 13 17 20 21 18 17 15 23 32 46 54 51 41 43 36 35 30 26 24 23 20 18 17 19 15 17 24 30 32 33 31 28 24 23 26 26
27 22 16 11 12 16 16 17 21 25 27 12 27 36 54 58 58 59 57 52 46 40 41 38 37 33 29 25 25 23 26 26 25 21 25 28 30 27 24 25 26 23 17
36 34 29 23 28 29 36 40 43 45 48 54 59 63 65 57 53 54 49 51 49 44 42 38 36 35 32 24 21 21 25 27 26 25 22 25 23 23 23 20 21 21 18
52 49 47 45 48 50 56 58 60 66 70 67 66 65 62 52 51 54 48 50 50 48 43 36 31 30 31 27 17 21 22 22 22 18 16 15 14 18 19 20 25 24 21
55 53 54 60 66 66 65 67 65 64 63 63 61 55 53 54 47 45 37 36 36 36 33 30 27 24 22 17 9 12 10 13 13 13 13 12 15 15 16 19 19 21 21
45 44 47 51 56 60 60 58 57 57 54 52 49 49 48 47 45 39 34 30 27 26 25 24 21 17 13 8 4 4 5 8 9 10 10 14 15 15 17 20 21 23 24
36 40 44 46 47 47 48 46 43 41 41 39 37 37 37 36 31 27 23 18 17 14 14 14 12 9 5 6 8 8 9 10 13 13 15 15 16 18 21 22 22 24 26
26 29 32 32 32 32 31 33 33 31 30 27 24 26 26 23 19 14 9 5 2 3 3 3 4 5 6 10 10 10 11 15 17 17 16 15 17 19 19 19 21 22 23
21 21 20 20 20 19 19 21 22 22 21 20 20 19 18 16 14 13 9 5 0 4 6 7 6 6 5 9 9 10 10 13 15 14 14 15 17 18 19 20 21 21 22
18 17 16 17 19 20 21 25 23 23 20 18 16 14 13 11 8 6 3 1 1 5 8 10 9 9 11 11 11 13 15 15 15 15 17 18 18 19 17 17 17 18 17
16 17 15 15 15 16 18 19 20 22 21 22 20 16 17 17 16 14 11 5 2 8 13 13 14 15 14 14 14 14 16 16 15 15 15 15 15 16 17 15 15 15 16
16 15 13 13 13 14 14 14 14 17 18 17 16 15 16 18 17 16 12 11 9 11 15 16 18 18 18 18 17 15 14 12 11 10 11 12 13 14 15 16 16 17 18
11 11 11 11 11 11 11 13 14 15 14 15 15 16 14 11 8 6 5 6 5 4 8 11 13 13 12 12 11 10 9 9 10 10 11 11 12 12 13 13 13 14 15
6 5 4 4 4 5 6 7 7 7 8 9 10 9 9 9 11 11 10 9 8 6 5 6 8 8 8 9 10 11 11 11 12 12 13 13 13 14 15 15 16 17 18
4 5 6 7 7 6 6 6 6 8 10 11 12 12 12 12 11 10 9 7 7 7 8 9 11 12 13 14 14 15 15 15 15 16 17 18 18 19 19 19 20 21 22
13 13 14 13 11 10 10 10 11 12 13 13 13 13 11 10 9 9 9 10 10 11 11 12 12 13 13 13 14 14 16 17 18 20 21 23 24 25 26 26 27 27 27
22 22 20 17 16 15 15 16 15 15 15 17 14 16 15 14 14 15 15 15 16 16 17 17 17 16 17 18 19 21 22 24 26 28 30 31 32 33 35 35 34 33 33
30 27 26 24 22 21 19 17 17 17 17 16 16 17 17 18 19 19 18 18 18 19 19 20 21 22 23 25 27 28 30 31 35 38 40 41 42 42 42 44 44 44 44
34 31 31 29 26 25 23 21 20 19 18 18 19 19 20 21 21 22 22 23 24 24 24 24 26 27 30 32 35 38 40 42 44 45 47 49 51 51 52 54 55 56 56
37 35 33 31 29 26 24 22 21 20 20 21 21 22 22 22 23 23 25 26 26 27 28 30 32 35 38 40 43 45 45 47 49 50 53 56 59 60 61 63 63 61 59
38 36 34 31 29 26 24 23 22 22 23 24 24 24 24 24 25 28 29 29 30 31 32 34 38 41 44 46 46 48 51 53 55 56 58 62 65 66 64 62 58 53 49
Wind_Direction_850mb
335 307 278 266 264 256 252 257 258 252 256 255 267 240 240 244 237 203 219 228 230 237 239 241 238 240 241 243 249 246 245 248 241 241 236 232 233 234 237 238 238 240 229
335 320 300 277 268 262 255 251 252 261 245 251 261 269 234 235 230 207 219 226 234 236 245 232 227 235 239 233 235 238 245 240 240 239 225 211 213 215 220 219 210 214 210
333 318 310 303 294 282 273 263 252 238 252 249 255 284 235 228 252 198 206 206 203 222 227 212 206 211 221 231 236 240 240 242 243 239 229 215 204 197 192 188 183 186 194
338 326 307 286 277 268 270 271 260 247 249 263 241 286 270 214 235 177 197 183 214 194 190 189 185 203 224 236 234 234 228 228 233 230 220 203 192 180 189 190 183 184 191
348 337 330 318 285 254 243 248 252 248 242 255 243 262 251 199 186 169 169 159 167 162 150 149 148 149 148 157 165 176 184 190 189 190 184 180 178 177 185 185 190 183 177
5 3 357 337 289 206 200 185 210 215 203 198 207 230 184 166 155 150 140 146 131 127 129 123 122 126 133 135 138 138 132 129 151 160 167 169 171 174 178 184 194 177 159
47 47 53 86 113 129 144 159 158 158 148 159 147 154 138 138 137 127 127 125 123 123 119 120 122 120 117 118 115 116 112 114 119 129 152 157 162 164 166 173 170 171 167
64 66 67 81 104 119 121 127 132 127 126 135 130 127 122 118 119 117 120 120 120 119 118 123 124 118 110 108 110 116 119 117 116 124 134 145 147 155 160 174 180 182 199
67 79 88 97 105 112 109 106 108 113 113 111 111 110 108 108 109 107 111 118 120 124 126 125 121 120 113 109 117 120 118 124 128 132 149 148 164 177 181 192 209 209 216
59 68 81 91 96 96 97 97 100 99 99 99 99 100 101 99 97 98 103 113 121 123 126 128 130 131 121 113 117 112 128 134 146 164 162 173 188 197 201 207 221 222 222
63 69 76 77 81 85 86 88 92 99 102 104 101 101 102 104 106 113 117 120 123 128 128 132 131 124 124 132 121 151 179 174 197 212 208 213 215 222 230 232 233 235 239
66 72 73 76 81 86 91 95 92 94 99 102 101 100 100 103 109 115 117 119 123 136 134 128 130 138 144 206 218 228 241 251 249 244 242 243 246 244 243 242 243 246 245
62 68 76 81 85 87 90 93 95 98 102 98 94 93 92 91 97 108 120 121 148 141 141 96 23 330 304 286 275 275 263 259 262 257 257 256 256 258 262 263 263 260 257
55 57 63 69 70 72 75 80 86 89 82 80 77 74 74 73 73 72 69 87 133 304 337 331 337 322 297 288 307 316 293 265 262 275 273 274 277 278 278 279 277 269 263
51 50 51 58 60 59 63 68 65 67 67 67 61 51 50 46 39 31 39 44 340 307 311 313 315 314 316 311 304 293 281 276 280 284 285 289 291 291 287 284 280 278 271
51 55 53 56 57 60 61 57 56 53 44 36 34 32 24 21 18 7 9 347 307 293 296 296 292 293 293 290 285 278 281 285 289 293 294 293 292 290 289 285 282 278 276
48 50 46 44 39 37 37 42 37 31 30 24 25 19 10 5 3 359 351 339 314 277 259 275 289 295 301 300 299 295 286 284 283 283 281 278 278 282 285 288 290 289 290
41 45 47 40 34 28 26 25 17 13 14 9 4 4 7 10 10 11 2 5 350 293 285 282 285 284 276 269 267 272 285 294 298 298 293 290 287 285 287 287 285 285 286
30 23 22 20 20 5 357 349 346 335 332 333 341 348 349 352 354 355 356 0 355 335 299 272 265 267 276 287 295 299 301 301 300 301 303 304 303 304 305 304 302 299 297
298 308 315 308 300 302 308 310 315 324 330 338 345 349 351 350 353 353 346 333 316 300 291 285 283 284 286 288 291 294 296 296 295 294 293 293 295 297 297 296 295 296 297
283 285 287 284 289 302 315 320 322 326 327 332 334 331 329 328 321 311 309 308 304 299 292 287 285 283 283 283 284 285 288 290 292 295 297 299 300 300 299 298 297 296 296
266 268 272 279 286 294 301 306 307 311 313 314 312 308 309 306 306 307 307 307 307 306 307 306 304 301 298 297 298 300 302 303 304 303 303 301 300 300 299 297 296 295 294
263 270 279 283 284 283 284 287 292 292 291 291 293 295 300 301 301 301 301 301 302 303 302 299 297 297 297 299 300 302 303 302 300 299 298 297 297 297 296 295 294 293 292
262 268 271 272 274 276 279 283 285 287 291 294 294 292 292 292 292 295 299 301 301 299 297 296 296 296 298 299 299 299 299 297 295 295 294 293 293 292 291 290 291 291 291
261 263 267 270 274 276 277 280 283 288 292 292 292 293 293 291 291 291 292 294 295 295 295 295 295 295 295 295 295 295 294 292 292 291 290 289 288 289 289 289 289 289 288
258 262 266 270 272 273 275 279 284 287 289 289 288 287 287 289 291 295 296 295 295 295 295 294 294 295 295 296 296 295 294 292 291 290 288 287 286 287 287 286 286 285 285